{"data":{"norad_id":52680,"intl_designator":"2022-053AA","name":"STARLINK-3774","alt_names":[],"object_type":"PAYLOAD","status":"ACTIVE","operator":null,"country":"US","launch_date":"2022-05-18","launch_site_code":"AFETR","launch_vehicle":null,"mission":null,"orbit_class":"UNKNOWN","rcs_meters":null,"size_class":null,"mass_kg":null,"dimensions":null,"purposes":["comms"],"wikipedia_slug":null,"has_3d_model":false,"image_url":null,"decayed_at":null,"tle_current":{"epoch":"2026-05-25T01:09:51.937920Z","epoch_age_seconds":74035,"freshness":"FRESH","line1":"1 52680U 22053AA  26145.04851780  .00000045  00000+0  20890-4 0  9995","line2":"2 52680  53.2144 161.0993 0001153  73.3172 286.7946 15.08839870222685","mean_motion":15.0883987,"eccentricity":0.0001153,"inclination_deg":53.2144,"raan_deg":161.0993,"arg_perigee_deg":73.3172,"mean_anomaly_deg":286.7946,"bstar":2.089e-5,"rev_number":22268,"period_min":95.437562900561,"perigee_km":538.94615466746,"apogee_km":540.54141797679,"semimajor_km":6917.8807863221,"source":"CELESTRAK","updated_at":"2026-05-25T13:38:17.234308Z"}}}